• MPC Preparation (Info)

  • MPEC 2016-O180: 2015 FP345

    The following Minor Planet Electronic Circular may be linked-to from your own Web pages, but must not otherwise be redistributed electronically.

    A form allowing access to any MPEC is at the bottom of this page.


    Read MPEC 2016-O179 Read MPEC 2016-O181


    M.P.E.C. 2016-O180                               Issued 2016 July 17, 10:16 UT
    
         The Minor Planet Electronic Circulars contain information on unusual
             minor planets and routine data on comets.  They are published
        on behalf of Division F of the International Astronomical Union by the
              Minor Planet Center, Smithsonian Astrophysical Observatory,
                              Cambridge, MA 02138, U.S.A.
    
                 Prepared using the Tamkin Foundation Computer Network
    
                                  MPC@CFA.HARVARD.EDU
                URL https://www.minorplanetcenter.net/    ISSN 1523-6714
    
                                      2015 FP345
    
    Observations:
         K15FY5P  C2013 04 11.37747 13 25 30.842+01 25 40.30         22.0 wLEO180F51
         K15FY5P  C2013 04 11.39110 13 25 30.771+01 25 40.80         22.2 wLEO180F51
         K15FY5P  C2013 04 11.40480 13 25 30.690+01 25 40.95         22.2 wLEO180F51
         K15FY5P  C2013 04 11.41854 13 25 30.627+01 25 41.50         22.6 wLEO180F51
         K15FY5P  C2014 04 30.30976 13 31 08.958+00 58 18.08         22.5 wLEO180F51
         K15FY5P  C2014 04 30.32299 13 31 08.912+00 58 18.53         22.5 wLEO180F51
         K15FY5P  C2014 04 30.33615 13 31 08.847+00 58 19.12         22.4 wLEO180F51
         K15FY5P  C2014 04 30.34935 13 31 08.769+00 58 19.20         22.2 wLEO180F51
         K15FY5P  C2014 07 01.27379 13 28 00.513+01 05 01.28         22.6 wLEO180F51
         K15FY5P  C2014 07 01.28524 13 28 00.505+01 05 01.09         22.7 wLEO180F51
         K15FY5P  C2014 07 01.29670 13 28 00.504+01 05 00.88         22.3 wLEO180F51
         K15FY5P  C2014 07 01.30814 13 28 00.491+01 05 00.65         22.7 wLEO180F51
         K15FY5P* C2015 03 25.44265 13 41 21.633+00 03 14.33         22.3 wLEO180F51
         K15FY5P  C2015 03 25.45745 13 41 21.567+00 03 14.80         22.2 wLEO180F51
         K15FY5P  C2015 03 25.47240 13 41 21.498+00 03 15.30         22.2 wLEO180F51
         K15FY5P  C2015 03 25.48741 13 41 21.438+00 03 15.92         22.2 wLEO180F51
         K15FY5P  C2015 04 15.44207 13 39 36.953+00 14 56.97         22.1 wLEO180F51
         K15FY5P  C2015 04 15.45723 13 39 36.834+00 14 57.42         22.0 wLEO180F51
         K15FY5P  C2015 04 15.48670 13 39 36.704+00 14 58.37         22.2 wLEO180F51
         K15FY5P  C2015 04 21.40749 13 39 06.098+00 17 57.56         22.0 wLEO180F51
         K15FY5P  C2015 04 21.43458 13 39 05.965+00 17 58.14         22.1 wLEO180F51
         K15FY5P  C2015 04 21.44816 13 39 05.869+00 17 58.48         21.9 wLEO180F51
         K15FY5P  C2015 05 19.33524 13 36 52.364+00 28 34.17         22.1 wLEO180F51
         K15FY5P  C2015 05 19.34692 13 36 52.304+00 28 34.46         22.2 wLEO180F51
         K15FY5P  C2015 05 19.35864 13 36 52.249+00 28 34.84         22.2 wLEO180F51
         K15FY5P  C2015 06 07.27544 13 35 45.024+00 31 33.21         22.3 wLEO180F51
         K15FY5P  C2015 06 07.29696 13 35 44.959+00 31 33.16         22.4 wLEO180F51
         K15FY5P  C2015 06 07.30870 13 35 44.923+00 31 33.04         22.2 wLEO180F51
         K15FY5P  C2015 06 08.27364 13 35 42.228+00 31 36.26         22.6 wLEO180F51
         K15FY5P  C2015 06 08.28537 13 35 42.196+00 31 36.18         22.4 wLEO180F51
         K15FY5P  C2015 06 08.29710 13 35 42.164+00 31 36.07         22.4 wLEO180F51
         K15FY5P  C2015 06 08.30894 13 35 42.146+00 31 36.56         22.4 wLEO180F51
    
    Observer details:
    F51 Pan-STARRS 1, Haleakala.  Observers B. Gibson, T. Goggia, N. Primak,
        A. Schultz, M. Willman.  Measurers K. Chambers, S. Chastel, Y.-T. Chen,
        L. Denneau, H. Flewelling, M. Holman, M. Huber, R. Jedicke, M. Lackner,
        E. Lilly, H.-W. Lin, E. Magnier, M. Micheli, M. Payne, P. Veres,
        R. Wainscoat, C. Waters, R. Weryk.  1.8-m Ritchey-Chretien + CCD.
    
    Orbital elements:
    2015 FP345
    Epoch 2016 July 31.0 TT = JDT 2457600.5                 MPC
    M  25.96276              (2000.0)            P               Q
    n   0.00336888     Peri.   34.82402     -0.95890131     -0.25051201
    a  44.0702565      Node   130.09934     +0.20423991     -0.93536245
    e   0.2237611      Incl.   10.03105     +0.19696279     -0.24968145
    P 293              H    6.6           G   0.15           U   3
    Residuals in seconds of arc
    130411 F51  0.0   0.2+    140701 F51  0.1+  0.1-    150519 F51  0.3+  0.2-
    130411 F51  0.0   0.2+    150325 F51  0.0   0.1+    150519 F51  0.1+  0.1-
    130411 F51  0.1-  0.1-    150325 F51  0.1+  0.1+    150519 F51  0.1+  0.1+
    130411 F51  0.1+  0.0     150325 F51  0.1+  0.1+    150607 F51  0.1-  0.2+
    140430 F51  0.4-  0.3-    150325 F51  0.3+  0.2+    150607 F51  0.1-  0.1+
    140430 F51  0.0   0.2-    150415 F51  0.2+  0.2-    150607 F51  0.1-  0.1-
    140430 F51  0.0   0.1+    150415 F51  0.4-  0.2-    150608 F51  0.1-  0.3+
    140430 F51  0.2-  0.2-    150415 F51  0.0   0.2-    150608 F51  0.1-  0.2+
    140701 F51  0.2+  0.0     150421 F51  0.1-  0.1+    150608 F51  0.1-  0.0
    140701 F51  0.1+  0.0     150421 F51  0.0   0.1-    150608 F51  0.2+  0.5+
    140701 F51  0.2+  0.1-    150421 F51  0.3-  0.2-
    
    Ephemeris:
    2015 FP345               a,e,i = 44.07, 0.22, 10                 q = 34.209
    Date    TT    R. A. (2000) Decl.     Delta      r     Elong.  Phase     V
    2016 06 17    13 42 22.1 -00 03 56  35.2993 35.7765   117.3     1.4    22.3
    ...
    2016 07 02    13 42 01.3 -00 05 51  35.5372 35.7823   103.2     1.6    22.3
    ...
    2016 07 10    13 41 59.2 -00 07 52  35.6711 35.7854    95.6     1.6    22.3
    ...
    2016 07 16    13 42 01.9 -00 09 48  35.7728 35.7878    90.0     1.6    22.3
    2016 07 17    13 42 02.7 -00 10 09  35.7898 35.7881    89.1     1.6    22.3
    2016 07 18    13 42 03.6 -00 10 31  35.8067 35.7885    88.2     1.6    22.3
    ...
    2016 07 24    13 42 11.2 -00 12 55  35.9082 35.7909    82.6     1.6    22.4
    ...
    2016 08 01    13 42 26.9 -00 16 37  36.0413 35.7940    75.1     1.6    22.4
    ...
    2016 08 16    13 43 13.1 -00 24 53  36.2768 35.7998    61.2     1.4    22.4
    
    A. U. Tomatic                (C) Copyright 2016 MPC           M.P.E.C. 2016-O180
    

    Read MPEC 2016-O179 Read MPEC 2016-O181


    MPEC number:

    Enter an MPEC number in one of the following forms:

    • 1997-B01 (the full form)
    • J97B01 (the packed version of the full form)
    • B01 (the abbreviated form)